[[{"header":{"parameterUnit":"m.s-1","parameterCategory":1,"la1":30.2991,"la2":30.254,"lo1":-89.0895,"lo2":-89.0444,"dy":0.0017,"dx":0.0017,"nx":28,"ny":28,"refTime":"2025-01-21T03:00:00:Z","depth":0,"parameterNumber":2,"parameterNumberName":"U-component_of_WINDS"},"data":[0,0,0,0,0,0,0,0,0,0,0,0,0,0,0,0,0,0,0,0,0,0,0,0,0,0,0,0,0,0,0,0,0,0,0,0,0,0,0,0,0,0,0,0,0,0,0,0,0,0,0,0,0,0,0,0,0,0,-4.1839,-4.1839,0,-4.1847,-4.1847,-4.1848,-4.1703,-4.1699,-4.1695,-4.1692,-4.1703,-4.1707,-4.1711,0,0,0,0,0,0,0,0,0,0,0,0,0,-4.17,-4.1704,-4.1839,-4.1839,-4.1839,-4.1847,-4.1847,-4.1848,-4.1704,-4.1699,-4.1694,-4.169,-4.1702,-4.1706,-4.1711,0,0,0,0,0,0,0,0,0,0,0,0,0,-4.174,-4.1705,-4.1839,-4.1769,-4.1762,-4.1847,-4.1847,-4.1848,-4.1705,-4.1699,-4.1693,-4.1688,-4.17,-4.1706,-4.1712,-4.1865,0,0,-4.173,-4.1732,0,0,0,0,0,0,0,0,-4.1738,-4.1745,-4.1779,-4.1774,-4.1767,-4.1768,-4.1802,-4.1854,-4.1706,-4.1727,-4.1692,-4.1685,-4.173,-4.1733,-4.1747,-4.1866,-4.1866,-4.173,-4.1734,-4.1736,-4.1738,0,0,0,0,0,0,0,-4.1735,-4.1744,-4.1842,-4.178,-4.1772,-4.1737,-4.1736,-4.1811,-4.1761,-4.1725,-4.1714,-4.1717,-4.1725,-4.1742,-4.1746,-4.1867,-4.173,-4.1735,-4.1739,-4.1741,-4.211,-4.2116,0,0,0,0,0,0,-4.1742,-4.1743,-4.1842,-4.1843,-4.1738,-4.1744,-4.1743,-4.1774,-4.176,-4.1752,-4.1722,-4.171,-4.1735,-4.174,-4.1746,-4.1924,-4.1736,-4.1742,-4.1745,-4.2104,-4.2112,-4.2118,0,0,0,0,0,0,-4.174,-4.1752,-4.1842,-4.179,-4.1799,-4.1753,-4.1788,-4.1777,-4.1793,-4.1758,-4.1748,-4.1748,-4.173,-4.1738,-4.1836,-4.1923,-4.1744,-4.175,-4.2097,-4.2106,-4.2115,-4.2283,0,0,0,0,0,0,-4.1736,-4.1752,-4.181,-4.1792,-4.1802,-4.1932,-4.1794,-4.1781,-4.1804,-4.1788,-4.178,-4.1773,-4.1726,-4.1828,-4.1842,-4.1928,-4.1754,-4.2089,-4.2101,-4.2112,-4.227,-4.2297,-4.2321,0,0,0,0,0,-4.1732,-4.1858,-4.1814,-4.1827,-4.1873,-4.1937,-4.1943,-4.1886,-4.1811,-4.1869,-4.1846,-4.1773,-4.1911,-4.184,-4.1854,-4.1943,-4.2083,-4.2097,-4.2111,-4.2258,-4.2292,-4.232,0,0,0,0,0,0,-4.1889,-4.1855,-4.1805,-4.1929,-4.1937,-4.1913,-4.1984,-4.1923,-4.1953,-4.1938,-4.1866,-4.1866,-4.1976,-4.1969,-4.189,-4.209,-4.1984,-4.2002,-4.2091,-4.2122,-4.2147,-4.2147,-4.1759,0,0,0,0,0,-4.1938,-4.1992,-4.1959,-4.2072,-4.2078,-4.2031,-4.2057,-4.2012,-4.2018,-4.2021,-4.2004,-4.2014,-4.2058,-4.209,-4.2129,-4.2267,-4.2263,-4.2335,-4.2361,-4.2382,-4.2398,-4.247,-4.2502,-4.2165,-4.2164,-4.2164,0,0,-4.204,-4.2028,-4.2067,-4.2103,-4.2104,-4.2162,-4.2035,-4.2102,-4.2145,-4.2031,-4.2123,-4.2111,-4.2116,-4.2235,-4.2287,-4.2233,-4.249,-4.24,-4.2417,-4.2422,-4.2488,-4.252,-4.2548,-4.2174,-4.2172,-4.2171,0,0,-4.2256,-4.2252,-4.2345,-4.2348,-4.235,-4.2317,-4.234,-4.2324,-4.2312,-4.2402,-4.2318,-4.2367,-4.2447,-4.2453,-4.2467,-4.2684,-4.2618,-4.2699,-4.2832,-4.2903,-4.2929,-4.2952,-4.3029,-4.3058,-4.2715,-4.2715,-4.2715,0,-4.2383,-4.2466,-4.2401,-4.2473,-4.2492,-4.239,-4.2483,-4.2489,-4.2505,-4.2521,-4.2459,-4.2556,-4.2552,-4.267,-4.2723,-4.2738,-4.2761,-4.27,-4.2931,-4.2953,-4.2974,-4.3046,-4.3076,-4.2725,-4.2724,-4.2723,-4.2722,0,-4.2622,-4.2681,-4.2756,-4.2772,-4.2799,-4.2882,-4.2829,-4.2864,-4.2816,-4.279,-4.2883,-4.2875,-4.291,-4.2935,-4.289,-4.3047,-4.3013,-4.2943,-4.2835,-4.3017,-4.3084,-4.3111,-4.2739,-4.2736,-4.2733,-4.273,0,0,-4.2939,-4.2916,-4.2945,-4.295,-4.2944,-4.2989,-4.3067,-4.31,-4.3131,-4.3145,-4.3209,-4.3277,-4.3211,-4.3227,-4.3181,-4.3243,-4.3415,-4.3165,-4.3164,-4.3211,-4.3587,-4.364,-4.3674,-4.337,-4.3375,-4.3379,-4.3586,0,-4.3148,-4.3279,-4.3222,-4.3359,-4.3412,-4.3315,-4.3383,-4.3387,-4.3364,-4.3406,-4.3381,-4.3431,-4.334,-4.3349,-4.3406,-4.3382,-4.3489,-4.3366,-4.3429,-4.3432,-4.3431,-4.3708,-4.3765,-4.3961,-4.3612,-4.3616,-4.362,0,-4.3411,-4.3434,-4.3576,-4.3558,-4.3579,-4.3641,-4.3666,-4.3707,-4.3709,-4.3688,-4.3705,-4.3645,-4.372,-4.3612,-4.3715,-4.3632,-4.3654,-4.3647,-4.3653,-4.3657,-4.3538,-4.372,-4.4022,-4.4052,-4.366,-4.3657,-4.3654,0,-4.3627,-4.3694,-4.3787,-4.3795,-4.3777,-4.3823,-4.3818,-4.3813,-4.3837,-4.3859,-4.3873,-4.3905,-4.3922,-4.3948,-4.3897,-4.3824,-4.4007,-4.3895,-4.3992,-4.3993,-4.4036,-4.4034,-4.4346,-4.405,-4.405,-4.4049,-4.4048,0,-4.3868,-4.3958,-4.3884,-4.3941,-4.404,-4.3972,-4.4072,-4.4056,-4.4053,-4.4106,-4.4024,-4.4076,-4.4006,-4.4051,-4.4012,-4.4102,-4.4111,-4.4096,-4.4085,-4.4104,-4.4106,-4.4118,-4.4103,-4.4057,-4.4055,-4.4053,-4.4052,0,-4.4127,-4.408,-4.4175,-4.415,-4.4146,-4.422,-4.4198,-4.425,-4.422,-4.4288,-4.43,-4.4255,-4.4303,-4.4255,-4.4301,-4.4275,-4.4396,-4.4365,-4.4395,-4.4387,-4.4486,-4.4478,-4.4817,-4.4858,-4.4536,-4.454,-4.4542,0,-4.4283,-4.435,-4.4332,-4.436,-4.436,-4.4408,-4.443,-4.4366,-4.4393,-4.44,-4.4451,-4.4492,-4.4521,-4.4603,-4.4575,-4.4609,-4.4578,-4.4694,-4.4583,-4.4599,-4.4579,-4.4576,-4.4582,-4.4718,-4.4721,-4.4724,-4.4727,0,-4.4566,-4.4539,-4.4574,-4.4602,-4.4631,-4.4649,-4.4662,-4.469,-4.4624,-4.4659,-4.4706,-4.4729,-4.4774,-4.4816,-4.4841,-4.4836,-4.4772,-4.4762,-4.4786,-4.4807,-4.4821,-4.4814,-4.4457,-4.4755,-4.4752,-4.475,-4.4749,-4.4747,-4.4778,-4.4833,-4.4828,-4.4869,-4.4871,-4.4885,-4.4932,-4.4907,-4.4946,-4.4977,-4.4937,-4.4995,-4.4994,-4.5021,-4.5024,-4.5068,-4.5019,-4.5055,-4.5063,-4.5073,-4.5088,-4.4814,-4.5073,-4.5072,-4.5071,-4.5071,-4.507,0,-4.5056,-4.5047,-4.5086,-4.5105,-4.5138,-4.5072,-4.5082,-4.5114,-4.5166,-4.517,-4.52,-4.5254,-4.5294,-4.5268,-4.5301,-4.5342,-4.5313,-4.5353,-4.535,-4.535,-4.513,-4.5106,-4.5376,-4.5376,-4.5376,-4.5376,-4.5376,-4.5376,-4.5205,-4.5293,-4.5266,-4.5354,-4.5345,-4.54,-4.5412,-4.5423,-4.5426,-4.5489,-4.5521,-4.5503,-4.5495,-4.5527,-4.556,-4.5551,-4.5568,-4.5619,-4.56,-4.5395,-4.5365,-4.5336,-4.5313,-4.5623,-4.5623,-4.5815,-4.5817,-4.5818]},{"header":{"parameterUnit":"m.s-1","parameterCategory":1,"la1":30.2991,"la2":30.254,"lo1":-89.0895,"lo2":-89.0444,"dy":0.0017,"dx":0.0017,"nx":28,"ny":28,"refTime":"2025-01-21T03:00:00:Z","depth":0,"parameterNumber":3,"parameterNumberName":"V-component_of_WINDS"},"data":[0,0,0,0,0,0,0,0,0,0,0,0,0,0,0,0,0,0,0,0,0,0,0,0,0,0,0,0,0,0,0,0,0,0,0,0,0,0,0,0,0,0,0,0,0,0,0,0,0,0,0,0,0,0,0,0,0,0,-6.1784,-6.1785,0,-6.1864,-6.1864,-6.1865,-6.1778,-6.1774,-6.1771,-6.1768,-6.1845,-6.185,-6.1855,0,0,0,0,0,0,0,0,0,0,0,0,0,-6.1549,-6.1554,-6.1784,-6.1785,-6.1786,-6.1863,-6.1864,-6.1866,-6.1778,-6.1774,-6.177,-6.1766,-6.1843,-6.1849,-6.1855,0,0,0,0,0,0,0,0,0,0,0,0,0,-6.1642,-6.1556,-6.1784,-6.1752,-6.175,-6.1863,-6.1864,-6.1866,-6.1779,-6.1774,-6.1769,-6.1764,-6.1841,-6.1848,-6.1856,-6.2003,0,0,-6.188,-6.1883,0,0,0,0,0,0,0,0,-6.1637,-6.1651,-6.1755,-6.1754,-6.1752,-6.1806,-6.181,-6.1912,-6.178,-6.1768,-6.1768,-6.1762,-6.1835,-6.1843,-6.1869,-6.2007,-6.201,-6.188,-6.1885,-6.1888,-6.189,0,0,0,0,0,0,0,-6.1631,-6.1647,-6.1815,-6.1757,-6.1755,-6.1731,-6.1739,-6.1829,-6.1828,-6.1768,-6.1762,-6.1773,-6.1833,-6.1862,-6.187,-6.2011,-6.188,-6.1887,-6.1892,-6.1895,-6.2271,-6.2276,0,0,0,0,0,0,-6.1629,-6.1642,-6.1813,-6.1818,-6.1681,-6.1739,-6.1748,-6.1793,-6.1827,-6.1828,-6.1777,-6.1769,-6.1851,-6.1861,-6.1872,-6.2045,-6.1888,-6.1895,-6.19,-6.2266,-6.2272,-6.2278,0,0,0,0,0,0,-6.1624,-6.1645,-6.1809,-6.1728,-6.1747,-6.1749,-6.18,-6.1798,-6.1826,-6.1834,-6.1833,-6.1807,-6.1847,-6.1862,-6.1971,-6.2047,-6.1899,-6.1906,-6.2259,-6.2268,-6.2275,-6.2394,0,0,0,0,0,0,-6.1618,-6.1644,-6.1702,-6.173,-6.1752,-6.1909,-6.1805,-6.1803,-6.184,-6.1829,-6.1861,-6.1862,-6.1845,-6.196,-6.1979,-6.2055,-6.1912,-6.2252,-6.2263,-6.2272,-6.2383,-6.2405,-6.2423,0,0,0,0,0,-6.161,-6.1731,-6.1705,-6.1726,-6.1825,-6.1914,-6.1926,-6.1905,-6.1847,-6.1903,-6.1908,-6.1861,-6.2036,-6.1972,-6.1992,-6.2072,-6.2248,-6.226,-6.2272,-6.2374,-6.24,-6.2423,0,0,0,0,0,0,-6.171,-6.1735,-6.1706,-6.1841,-6.1876,-6.1899,-6.197,-6.1934,-6.1986,-6.1974,-6.1944,-6.1952,-6.2068,-6.2081,-6.201,-6.2214,-6.2132,-6.2148,-6.2202,-6.2228,-6.2247,-6.2241,-6.1918,0,0,0,0,0,-6.1748,-6.1821,-6.1837,-6.1954,-6.1974,-6.1969,-6.2007,-6.1988,-6.2023,-6.2037,-6.205,-6.2084,-6.2146,-6.2187,-6.2245,-6.2384,-6.2388,-6.2449,-6.2469,-6.2485,-6.25,-6.2572,-6.2598,-6.2318,-6.2318,-6.2317,0,0,-6.1827,-6.1849,-6.1897,-6.1975,-6.2,-6.2073,-6.1982,-6.2064,-6.2117,-6.2048,-6.2153,-6.2163,-6.2199,-6.2323,-6.2379,-6.2337,-6.2578,-6.2501,-6.2514,-6.2519,-6.2587,-6.2613,-6.2637,-6.2326,-6.2324,-6.2323,0,0,-6.2008,-6.2033,-6.2133,-6.216,-6.2199,-6.2195,-6.2219,-6.2247,-6.2252,-6.2356,-6.2306,-6.2367,-6.2476,-6.2503,-6.2531,-6.272,-6.2677,-6.2739,-6.2845,-6.2915,-6.2937,-6.2956,-6.3022,-6.3046,-6.2754,-6.2754,-6.2754,0,-6.2101,-6.2211,-6.2188,-6.2273,-6.2308,-6.225,-6.2349,-6.2376,-6.2432,-6.2456,-6.2409,-6.2543,-6.2563,-6.2691,-6.2737,-6.2763,-6.2787,-6.2735,-6.2936,-6.2955,-6.2973,-6.3035,-6.306,-6.2761,-6.2761,-6.276,-6.2759,0,-6.2322,-6.2399,-6.2474,-6.253,-6.2573,-6.2665,-6.2654,-6.27,-6.2676,-6.2676,-6.2782,-6.2804,-6.2864,-6.2893,-6.2871,-6.3018,-6.2991,-6.2941,-6.2857,-6.3007,-6.3065,-6.3089,-6.2772,-6.2769,-6.2767,-6.2765,0,0,-6.2569,-6.2611,-6.2638,-6.2662,-6.2701,-6.2759,-6.2846,-6.2906,-6.2945,-6.2985,-6.3056,-6.3149,-6.3102,-6.3134,-6.3114,-6.3176,-6.3321,-6.3117,-6.3118,-6.3153,-6.3482,-6.3519,-6.3547,-6.3294,-6.3298,-6.3302,-6.3479,0,-6.2749,-6.2903,-6.2884,-6.303,-6.3099,-6.3045,-6.312,-6.3151,-6.3153,-6.321,-6.3211,-6.3277,-6.3211,-6.3229,-6.3288,-6.3292,-6.3387,-6.3278,-6.3357,-6.336,-6.3349,-6.3577,-6.3617,-6.3783,-6.3501,-6.3505,-6.3508,0,-6.298,-6.3029,-6.3183,-6.3209,-6.3237,-6.3306,-6.3359,-6.3415,-6.3447,-6.3444,-6.3479,-6.3447,-6.3532,-6.3447,-6.3562,-6.3489,-6.352,-6.3526,-6.3532,-6.3537,-6.3443,-6.3588,-6.3835,-6.386,-6.3543,-6.3541,-6.3538,0,-6.3143,-6.3247,-6.3352,-6.3375,-6.3408,-6.3457,-6.3473,-6.35,-6.3537,-6.3582,-6.3605,-6.3659,-6.3689,-6.373,-6.3713,-6.3653,-6.3831,-6.3745,-6.3828,-6.3829,-6.3867,-6.3865,-6.4122,-6.389,-6.389,-6.3889,-6.3889,0,-6.3346,-6.3441,-6.3425,-6.349,-6.3594,-6.357,-6.3674,-6.3682,-6.3707,-6.377,-6.3726,-6.3786,-6.376,-6.3817,-6.3804,-6.39,-6.3914,-6.3912,-6.3907,-6.3916,-6.3916,-6.3935,-6.3922,-6.3896,-6.3894,-6.3893,-6.3892,0,-6.3545,-6.3538,-6.3649,-6.3671,-6.3679,-6.3755,-6.3772,-6.3832,-6.383,-6.391,-6.3927,-6.3924,-6.3989,-6.3976,-6.4047,-6.4038,-6.4158,-6.414,-6.4148,-6.4143,-6.4227,-6.4219,-6.4504,-6.4539,-6.4286,-6.4288,-6.429,0,-6.3674,-6.3746,-6.3777,-6.3816,-6.3836,-6.3901,-6.3938,-6.3916,-6.3956,-6.3997,-6.4051,-6.4112,-6.416,-6.4266,-6.4269,-6.4322,-6.4304,-6.44,-6.4311,-6.4317,-6.4303,-6.4299,-6.4304,-6.4417,-6.442,-6.4423,-6.4425,0,-6.3903,-6.3896,-6.3953,-6.4008,-6.4054,-6.4095,-6.4133,-6.4167,-6.4148,-6.4195,-6.4262,-6.4299,-6.4372,-6.4432,-6.4482,-6.4495,-6.4456,-6.4453,-6.4474,-6.4483,-6.4484,-6.4483,-6.4194,-6.4446,-6.4444,-6.4442,-6.4441,-6.444,-6.407,-6.4131,-6.4162,-6.4225,-6.4251,-6.4286,-6.4343,-6.4348,-6.4403,-6.4462,-6.4445,-6.452,-6.4548,-6.461,-6.463,-6.4686,-6.465,-6.4682,-6.469,-6.4698,-6.4708,-6.4476,-6.4696,-6.4695,-6.4694,-6.4694,-6.4693,0,-6.4296,-6.4312,-6.4371,-6.4425,-6.4474,-6.4435,-6.4473,-6.4517,-6.4584,-6.4614,-6.4662,-6.4737,-6.4795,-6.4802,-6.4856,-6.49,-6.4883,-6.4915,-6.4911,-6.4914,-6.4738,-6.4713,-6.4927,-6.4927,-6.4927,-6.4927,-6.4927,-6.4927,-6.4419,-6.4519,-6.4515,-6.4627,-6.4642,-6.4717,-6.4742,-6.4773,-6.4797,-6.4883,-6.4932,-6.4936,-6.4956,-6.5011,-6.5062,-6.5062,-6.5083,-6.5121,-6.5115,-6.495,-6.4927,-6.4904,-6.488,-6.5127,-6.5127,-6.5285,-6.5287,-6.5288]}]]